owner,sensor,date,latitude,longitude,vertical_datum,wind_speed,wind_to_direction,wind_speed_of_gust,qcFlag 
LUMCON,ioos:station:LUMCON:101:1,2015-01-01T00:45:00Z,29.2533,-90.6633,1.0,12.3,0.0,-9999.0,'1111122,1114422,1111122' 
LUMCON,ioos:station:LUMCON:101:1,2015-01-01T01:45:00Z,29.2533,-90.6633,1.0,13.9,3.0,-9999.0,'1111122,1111122,1111122' 
LUMCON,ioos:station:LUMCON:101:1,2015-01-01T02:45:00Z,29.2533,-90.6633,1.0,13.4,9.0,-9999.0,'1111122,1111122,1111122' 
LUMCON,ioos:station:LUMCON:101:1,2015-01-01T03:45:00Z,29.2533,-90.6633,1.0,10.5,27.0,-9999.0,'1111122,1111122,1111122' 
LUMCON,ioos:station:LUMCON:101:1,2015-01-01T04:45:00Z,29.2533,-90.6633,1.0,13.8,28.0,-9999.0,'1111122,1111122,1111122' 
LUMCON,ioos:station:LUMCON:101:1,2015-01-01T05:45:00Z,29.2533,-90.6633,1.0,13.2,32.0,-9999.0,'1111122,1111122,1111122' 
LUMCON,ioos:station:LUMCON:101:1,2015-01-01T06:45:00Z,29.2533,-90.6633,1.0,14.9,32.0,-9999.0,'1111122,1111122,1111122' 
LUMCON,ioos:station:LUMCON:101:1,2015-01-01T07:45:00Z,29.2533,-90.6633,1.0,18.8,40.0,-9999.0,'1111122,1111122,1111122' 
LUMCON,ioos:station:LUMCON:101:1,2015-01-01T08:45:00Z,29.2533,-90.6633,1.0,14.2,47.0,-9999.0,'1111122,1111122,1111122' 
LUMCON,ioos:station:LUMCON:101:1,2015-01-01T09:45:00Z,29.2533,-90.6633,1.0,9.8,40.0,-9999.0,'1111122,1111122,1111122' 
LUMCON,ioos:station:LUMCON:101:1,2015-01-01T10:45:00Z,29.2533,-90.6633,1.0,13.8,37.0,-9999.0,'1111122,1111122,1111122' 
LUMCON,ioos:station:LUMCON:101:1,2015-01-01T11:45:00Z,29.2533,-90.6633,1.0,14.0,36.0,-9999.0,'1111122,1111122,1111122' 
LUMCON,ioos:station:LUMCON:101:1,2015-01-01T12:45:00Z,29.2533,-90.6633,1.0,11.3,51.0,-9999.0,'1111122,1111122,1111122' 
LUMCON,ioos:station:LUMCON:101:1,2015-01-01T13:45:00Z,29.2533,-90.6633,1.0,11.8,52.0,-9999.0,'1111122,1111122,1111122' 
LUMCON,ioos:station:LUMCON:101:1,2015-01-01T14:45:00Z,29.2533,-90.6633,1.0,13.7,43.0,-9999.0,'1111122,1111122,1111122' 
LUMCON,ioos:station:LUMCON:101:1,2015-01-01T15:45:00Z,29.2533,-90.6633,1.0,12.0,41.0,-9999.0,'1111122,1111122,1111122' 
LUMCON,ioos:station:LUMCON:101:1,2015-01-01T16:45:00Z,29.2533,-90.6633,1.0,12.7,44.0,-9999.0,'1111122,1111122,1111122' 
LUMCON,ioos:station:LUMCON:101:1,2015-01-01T17:45:00Z,29.2533,-90.6633,1.0,11.8,45.0,-9999.0,'1111122,1111122,1111122' 
LUMCON,ioos:station:LUMCON:101:1,2015-01-01T18:45:00Z,29.2533,-90.6633,1.0,12.3,37.0,-9999.0,'1111122,1111122,1111122' 
LUMCON,ioos:station:LUMCON:101:1,2015-01-01T19:45:00Z,29.2533,-90.6633,1.0,11.9,43.0,-9999.0,'1111122,1111122,1111122' 
LUMCON,ioos:station:LUMCON:101:1,2015-01-01T20:45:00Z,29.2533,-90.6633,1.0,12.6,48.0,-9999.0,'1111122,1111122,1111122' 
LUMCON,ioos:station:LUMCON:101:1,2015-01-01T21:45:00Z,29.2533,-90.6633,1.0,13.5,42.0,-9999.0,'1111122,1111122,1111122' 
LUMCON,ioos:station:LUMCON:101:1,2015-01-01T22:45:00Z,29.2533,-90.6633,1.0,14.9,46.0,-9999.0,'1111122,1111122,1111122' 
LUMCON,ioos:station:LUMCON:101:1,2015-01-01T23:45:00Z,29.2533,-90.6633,1.0,14.4,47.0,-9999.0,'1111122,1111122,1111122' 
LUMCON,ioos:station:LUMCON:101:1,2015-01-02T01:45:00Z,29.2533,-90.6633,1.0,8.3,44.0,-9999.0,'1111122,1111122,1111122' 
LUMCON,ioos:station:LUMCON:101:1,2015-01-02T02:45:00Z,29.2533,-90.6633,1.0,11.3,56.0,-9999.0,'1111122,1111122,1111122' 
LUMCON,ioos:station:LUMCON:101:1,2015-01-02T03:45:00Z,29.2533,-90.6633,1.0,11.0,67.0,-9999.0,'1111122,1111122,1111122' 
LUMCON,ioos:station:LUMCON:101:1,2015-01-02T04:45:00Z,29.2533,-90.6633,1.0,8.7,59.0,-9999.0,'1111122,1111122,1111122' 
LUMCON,ioos:station:LUMCON:101:1,2015-01-02T05:45:00Z,29.2533,-90.6633,1.0,7.2,63.0,-9999.0,'1111122,1111122,1111122' 
LUMCON,ioos:station:LUMCON:101:1,2015-01-02T06:45:00Z,29.2533,-90.6633,1.0,5.9,59.0,-9999.0,'1111122,1111122,1111122' 
LUMCON,ioos:station:LUMCON:101:1,2015-01-02T07:45:00Z,29.2533,-90.6633,1.0,5.9,50.0,-9999.0,'1111122,1111122,1111122' 
LUMCON,ioos:station:LUMCON:101:1,2015-01-02T08:45:00Z,29.2533,-90.6633,1.0,7.4,52.0,-9999.0,'1111122,1111122,1111122' 
LUMCON,ioos:station:LUMCON:101:1,2015-01-02T09:45:00Z,29.2533,-90.6633,1.0,7.9,67.0,-9999.0,'1111122,1111122,1111122' 
LUMCON,ioos:station:LUMCON:101:1,2015-01-02T10:45:00Z,29.2533,-90.6633,1.0,6.3,77.0,-9999.0,'1111122,1111122,1111122' 
LUMCON,ioos:station:LUMCON:101:1,2015-01-02T11:45:00Z,29.2533,-90.6633,1.0,5.9,86.0,-9999.0,'1111122,1111122,1111122' 
LUMCON,ioos:station:LUMCON:101:1,2015-01-02T12:45:00Z,29.2533,-90.6633,1.0,4.0,84.0,-9999.0,'1111122,1111122,1111122' 
LUMCON,ioos:station:LUMCON:101:1,2015-01-02T13:45:00Z,29.2533,-90.6633,1.0,3.9,48.0,-9999.0,'1111122,1111122,1111122' 
LUMCON,ioos:station:LUMCON:101:1,2015-01-02T14:45:00Z,29.2533,-90.6633,1.0,4.6,79.0,-9999.0,'1111122,1111122,1111122' 
LUMCON,ioos:station:LUMCON:101:1,2015-01-02T15:45:00Z,29.2533,-90.6633,1.0,4.7,89.0,-9999.0,'1111122,1111122,1111122' 
LUMCON,ioos:station:LUMCON:101:1,2015-01-02T16:45:00Z,29.2533,-90.6633,1.0,6.6,72.0,-9999.0,'1111122,1111122,1111122' 
LUMCON,ioos:station:LUMCON:101:1,2015-01-02T17:45:00Z,29.2533,-90.6633,1.0,8.2,95.0,-9999.0,'1111122,1111122,1111122' 
LUMCON,ioos:station:LUMCON:101:1,2015-01-02T18:45:00Z,29.2533,-90.6633,1.0,10.1,80.0,-9999.0,'1111122,1111122,1111122' 
LUMCON,ioos:station:LUMCON:101:1,2015-01-02T19:45:00Z,29.2533,-90.6633,1.0,9.6,78.0,-9999.0,'1111122,1111122,1111122' 
LUMCON,ioos:station:LUMCON:101:1,2015-01-02T20:45:00Z,29.2533,-90.6633,1.0,12.1,86.0,-9999.0,'1111122,1111122,1111122' 
LUMCON,ioos:station:LUMCON:101:1,2015-01-02T21:45:00Z,29.2533,-90.6633,1.0,9.1,76.0,-9999.0,'1111122,1111122,1111122' 
LUMCON,ioos:station:LUMCON:101:1,2015-01-02T22:45:00Z,29.2533,-90.6633,1.0,8.2,90.0,-9999.0,'1111122,1111122,1111122' 
LUMCON,ioos:station:LUMCON:101:1,2015-01-02T23:45:00Z,29.2533,-90.6633,1.0,9.2,89.0,-9999.0,'1111122,1111122,1111122' 
LUMCON,ioos:station:LUMCON:101:1,2015-01-03T00:45:00Z,29.2533,-90.6633,1.0,11.1,89.0,-9999.0,'1111122,1111122,1111122' 
LUMCON,ioos:station:LUMCON:101:1,2015-01-03T01:45:00Z,29.2533,-90.6633,1.0,11.4,96.0,-9999.0,'1111122,1111122,1111122' 
LUMCON,ioos:station:LUMCON:101:1,2015-01-03T02:45:00Z,29.2533,-90.6633,1.0,7.9,126.0,-9999.0,'1111122,1111122,1111122' 
LUMCON,ioos:station:LUMCON:101:1,2015-01-03T03:45:00Z,29.2533,-90.6633,1.0,8.9,110.0,-9999.0,'1111122,1111122,1111122' 
LUMCON,ioos:station:LUMCON:101:1,2015-01-03T04:45:00Z,29.2533,-90.6633,1.0,10.2,111.0,-9999.0,'1111122,1111122,1111122' 
LUMCON,ioos:station:LUMCON:101:1,2015-01-03T05:45:00Z,29.2533,-90.6633,1.0,10.4,117.0,-9999.0,'1111122,1111122,1111122' 
LUMCON,ioos:station:LUMCON:101:1,2015-01-03T06:45:00Z,29.2533,-90.6633,1.0,10.2,107.0,-9999.0,'1111122,1111122,1111122' 
LUMCON,ioos:station:LUMCON:101:1,2015-01-03T07:45:00Z,29.2533,-90.6633,1.0,5.4,120.0,-9999.0,'1111122,1111122,1111122' 
LUMCON,ioos:station:LUMCON:101:1,2015-01-03T08:45:00Z,29.2533,-90.6633,1.0,6.9,128.0,-9999.0,'1111122,1111122,1111122' 
LUMCON,ioos:station:LUMCON:101:1,2015-01-03T09:45:00Z,29.2533,-90.6633,1.0,6.7,125.0,-9999.0,'1111122,1111122,1111122' 
LUMCON,ioos:station:LUMCON:101:1,2015-01-03T10:45:00Z,29.2533,-90.6633,1.0,8.0,141.0,-9999.0,'1111122,1111122,1111122' 
LUMCON,ioos:station:LUMCON:101:1,2015-01-03T11:45:00Z,29.2533,-90.6633,1.0,8.3,143.0,-9999.0,'1111122,1111122,1111122' 
LUMCON,ioos:station:LUMCON:101:1,2015-01-03T13:45:00Z,29.2533,-90.6633,1.0,13.6,160.0,-9999.0,'1111122,1111122,1111122' 
LUMCON,ioos:station:LUMCON:101:1,2015-01-03T14:45:00Z,29.2533,-90.6633,1.0,14.3,160.0,-9999.0,'1111122,1111122,1111122' 
LUMCON,ioos:station:LUMCON:101:1,2015-01-03T15:45:00Z,29.2533,-90.6633,1.0,14.7,162.0,-9999.0,'1111122,1111122,1111122' 
LUMCON,ioos:station:LUMCON:101:1,2015-01-03T16:45:00Z,29.2533,-90.6633,1.0,14.5,164.0,-9999.0,'1111122,1111122,1111122' 
LUMCON,ioos:station:LUMCON:101:1,2015-01-03T17:45:00Z,29.2533,-90.6633,1.0,12.4,171.0,-9999.0,'1111122,1111122,1111122' 
LUMCON,ioos:station:LUMCON:101:1,2015-01-03T18:45:00Z,29.2533,-90.6633,1.0,12.7,155.0,-9999.0,'1111122,1111122,1111122' 
LUMCON,ioos:station:LUMCON:101:1,2015-01-03T19:45:00Z,29.2533,-90.6633,1.0,10.7,158.0,-9999.0,'1111122,1111122,1111122' 
LUMCON,ioos:station:LUMCON:101:1,2015-01-03T20:45:00Z,29.2533,-90.6633,1.0,13.1,156.0,-9999.0,'1111122,1111122,1111122' 
LUMCON,ioos:station:LUMCON:101:1,2015-01-03T21:45:00Z,29.2533,-90.6633,1.0,8.9,252.0,-9999.0,'1111122,1111122,1111122' 
LUMCON,ioos:station:LUMCON:101:1,2015-01-03T23:45:00Z,29.2533,-90.6633,1.0,8.4,265.0,-9999.0,'1111122,1111122,1111122' 
LUMCON,ioos:station:LUMCON:101:1,2015-01-04T00:45:00Z,29.2533,-90.6633,1.0,8.8,281.0,-9999.0,'1111122,1111122,1111122' 
LUMCON,ioos:station:LUMCON:101:1,2015-01-04T01:45:00Z,29.2533,-90.6633,1.0,5.4,286.0,-9999.0,'1111122,1111122,1111122' 
LUMCON,ioos:station:LUMCON:101:1,2015-01-04T02:45:00Z,29.2533,-90.6633,1.0,14.9,297.0,-9999.0,'1111122,1111122,1111122' 
LUMCON,ioos:station:LUMCON:101:1,2015-01-04T03:45:00Z,29.2533,-90.6633,1.0,12.5,312.0,-9999.0,'1111122,1111122,1111122' 
LUMCON,ioos:station:LUMCON:101:1,2015-01-04T04:45:00Z,29.2533,-90.6633,1.0,12.6,291.0,-9999.0,'1111122,1111122,1111122' 
LUMCON,ioos:station:LUMCON:101:1,2015-01-04T05:45:00Z,29.2533,-90.6633,1.0,13.3,299.0,-9999.0,'1111122,1111122,1111122' 
LUMCON,ioos:station:LUMCON:101:1,2015-01-04T06:45:00Z,29.2533,-90.6633,1.0,13.0,301.0,-9999.0,'1111122,1111122,1111122' 
LUMCON,ioos:station:LUMCON:101:1,2015-01-04T07:45:00Z,29.2533,-90.6633,1.0,16.0,311.0,-9999.0,'1111122,1111122,1111122' 
LUMCON,ioos:station:LUMCON:101:1,2015-01-04T08:45:00Z,29.2533,-90.6633,1.0,17.7,321.0,-9999.0,'1111122,1111122,1111122' 
LUMCON,ioos:station:LUMCON:101:1,2015-01-04T09:45:00Z,29.2533,-90.6633,1.0,15.4,320.0,-9999.0,'1111122,1111122,1111122' 
LUMCON,ioos:station:LUMCON:101:1,2015-01-04T10:45:00Z,29.2533,-90.6633,1.0,14.6,315.0,-9999.0,'1111122,1111122,1111122' 
LUMCON,ioos:station:LUMCON:101:1,2015-01-04T11:45:00Z,29.2533,-90.6633,1.0,14.8,307.0,-9999.0,'1111122,1111122,1111122' 
LUMCON,ioos:station:LUMCON:101:1,2015-01-04T12:45:00Z,29.2533,-90.6633,1.0,13.9,311.0,-9999.0,'1111122,1111122,1111122' 
LUMCON,ioos:station:LUMCON:101:1,2015-01-04T13:45:00Z,29.2533,-90.6633,1.0,16.7,319.0,-9999.0,'1111122,1111122,1111122' 
LUMCON,ioos:station:LUMCON:101:1,2015-01-04T14:45:00Z,29.2533,-90.6633,1.0,12.4,312.0,-9999.0,'1111122,1111122,1111122' 
LUMCON,ioos:station:LUMCON:101:1,2015-01-04T15:45:00Z,29.2533,-90.6633,1.0,10.3,324.0,-9999.0,'1111122,1111122,1111122' 
LUMCON,ioos:station:LUMCON:101:1,2015-01-04T16:45:00Z,29.2533,-90.6633,1.0,9.8,330.0,-9999.0,'1111122,1111122,1111122' 
LUMCON,ioos:station:LUMCON:101:1,2015-01-04T17:45:00Z,29.2533,-90.6633,1.0,6.8,352.0,-9999.0,'1111122,1111122,1111122' 
LUMCON,ioos:station:LUMCON:101:1,2015-01-04T18:45:00Z,29.2533,-90.6633,1.0,9.5,314.0,-9999.0,'1111122,1111122,1111122' 
LUMCON,ioos:station:LUMCON:101:1,2015-01-04T19:45:00Z,29.2533,-90.6633,1.0,13.9,312.0,-9999.0,'1111122,1111122,1111122' 
LUMCON,ioos:station:LUMCON:101:1,2015-01-04T20:45:00Z,29.2533,-90.6633,1.0,14.6,321.0,-9999.0,'1111122,1111122,1111122' 
LUMCON,ioos:station:LUMCON:101:1,2015-01-04T21:45:00Z,29.2533,-90.6633,1.0,14.0,316.0,-9999.0,'1111122,1111122,1111122' 
LUMCON,ioos:station:LUMCON:101:1,2015-01-04T22:45:00Z,29.2533,-90.6633,1.0,19.2,337.0,-9999.0,'1111122,1111122,1111122' 
LUMCON,ioos:station:LUMCON:101:1,2015-01-04T23:45:00Z,29.2533,-90.6633,1.0,21.8,337.0,-9999.0,'1111122,1111122,1111122' 
LUMCON,ioos:station:LUMCON:101:1,2015-01-05T00:45:00Z,29.2533,-90.6633,1.0,22.8,347.0,-9999.0,'1111122,1111122,1111122' 
LUMCON,ioos:station:LUMCON:101:1,2015-01-05T01:45:00Z,29.2533,-90.6633,1.0,23.7,340.0,-9999.0,'1111122,1111122,1111122' 
LUMCON,ioos:station:LUMCON:101:1,2015-01-05T02:45:00Z,29.2533,-90.6633,1.0,20.7,346.0,-9999.0,'1111122,1111122,1111122' 
LUMCON,ioos:station:LUMCON:101:1,2015-01-05T03:45:00Z,29.2533,-90.6633,1.0,19.7,347.0,-9999.0,'1111122,1111122,1111122' 
LUMCON,ioos:station:LUMCON:101:1,2015-01-05T04:45:00Z,29.2533,-90.6633,1.0,17.8,353.0,-9999.0,'1111122,1111122,1111122' 
LUMCON,ioos:station:LUMCON:101:1,2015-01-05T05:45:00Z,29.2533,-90.6633,1.0,13.3,6.0,-9999.0,'1111122,1111122,1111122' 
LUMCON,ioos:station:LUMCON:101:1,2015-01-05T06:45:00Z,29.2533,-90.6633,1.0,18.0,350.0,-9999.0,'1111122,1111122,1111122' 
LUMCON,ioos:station:LUMCON:101:1,2015-01-05T07:45:00Z,29.2533,-90.6633,1.0,14.4,359.0,-9999.0,'1111122,1111122,1111122' 
LUMCON,ioos:station:LUMCON:101:1,2015-01-05T08:45:00Z,29.2533,-90.6633,1.0,16.7,357.0,-9999.0,'1111122,1111122,1111122' 
LUMCON,ioos:station:LUMCON:101:1,2015-01-05T09:45:00Z,29.2533,-90.6633,1.0,14.2,356.0,-9999.0,'1111122,1111122,1111122' 
LUMCON,ioos:station:LUMCON:101:1,2015-01-05T10:45:00Z,29.2533,-90.6633,1.0,13.2,3.0,-9999.0,'1111122,1111122,1111122' 
LUMCON,ioos:station:LUMCON:101:1,2015-01-05T11:45:00Z,29.2533,-90.6633,1.0,13.7,1.0,-9999.0,'1111122,1111122,1111122' 
LUMCON,ioos:station:LUMCON:101:1,2015-01-05T12:45:00Z,29.2533,-90.6633,1.0,14.0,10.0,-9999.0,'1111122,1111122,1111122' 
LUMCON,ioos:station:LUMCON:101:1,2015-01-05T13:45:00Z,29.2533,-90.6633,1.0,11.9,13.0,-9999.0,'1111122,1111122,1111122' 
LUMCON,ioos:station:LUMCON:101:1,2015-01-05T14:45:00Z,29.2533,-90.6633,1.0,12.0,5.0,-9999.0,'1111122,1111122,1111122' 
LUMCON,ioos:station:LUMCON:101:1,2015-01-05T15:45:00Z,29.2533,-90.6633,1.0,9.9,31.0,-9999.0,'1111122,1111122,1111122' 
LUMCON,ioos:station:LUMCON:101:1,2015-01-05T16:45:00Z,29.2533,-90.6633,1.0,11.3,7.0,-9999.0,'1111122,1111122,1111122' 
LUMCON,ioos:station:LUMCON:101:1,2015-01-05T17:45:00Z,29.2533,-90.6633,1.0,9.4,11.0,-9999.0,'1111122,1111122,1111122' 
LUMCON,ioos:station:LUMCON:101:1,2015-01-05T18:45:00Z,29.2533,-90.6633,1.0,7.8,19.0,-9999.0,'1111122,1111122,1111122' 
LUMCON,ioos:station:LUMCON:101:1,2015-01-05T19:45:00Z,29.2533,-90.6633,1.0,7.5,19.0,-9999.0,'1111122,1111122,1111122' 
LUMCON,ioos:station:LUMCON:101:1,2015-01-05T20:45:00Z,29.2533,-90.6633,1.0,7.3,24.0,-9999.0,'1111122,1111122,1111122' 
LUMCON,ioos:station:LUMCON:101:1,2015-01-05T21:45:00Z,29.2533,-90.6633,1.0,6.1,29.0,-9999.0,'1111122,1111122,1111122' 
LUMCON,ioos:station:LUMCON:101:1,2015-01-05T22:45:00Z,29.2533,-90.6633,1.0,4.6,0.0,-9999.0,'1111122,1114422,1111122' 
LUMCON,ioos:station:LUMCON:101:1,2015-01-05T23:45:00Z,29.2533,-90.6633,1.0,2.1,5.0,-9999.0,'1111122,1111122,1111122' 
LUMCON,ioos:station:LUMCON:101:1,2015-01-06T00:45:00Z,29.2533,-90.6633,1.0,3.3,348.0,-9999.0,'1111122,1111122,1111122' 
LUMCON,ioos:station:LUMCON:101:1,2015-01-06T01:45:00Z,29.2533,-90.6633,1.0,5.4,314.0,-9999.0,'1111122,1111122,1111122' 
LUMCON,ioos:station:LUMCON:101:1,2015-01-06T02:45:00Z,29.2533,-90.6633,1.0,6.0,309.0,-9999.0,'1111122,1111122,1111122' 
LUMCON,ioos:station:LUMCON:101:1,2015-01-06T03:45:00Z,29.2533,-90.6633,1.0,7.1,319.0,-9999.0,'1111122,1111122,1111122' 
LUMCON,ioos:station:LUMCON:101:1,2015-01-06T04:45:00Z,29.2533,-90.6633,1.0,6.0,326.0,-9999.0,'1111122,1111122,1111122' 
LUMCON,ioos:station:LUMCON:101:1,2015-01-06T05:45:00Z,29.2533,-90.6633,1.0,5.3,347.0,-9999.0,'1111122,1111122,1111122' 
LUMCON,ioos:station:LUMCON:101:1,2015-01-06T06:45:00Z,29.2533,-90.6633,1.0,5.5,320.0,-9999.0,'1111122,1111122,1111122' 
LUMCON,ioos:station:LUMCON:101:1,2015-01-06T07:45:00Z,29.2533,-90.6633,1.0,9.0,330.0,-9999.0,'1111122,1111122,1111122' 
LUMCON,ioos:station:LUMCON:101:1,2015-01-06T08:45:00Z,29.2533,-90.6633,1.0,11.7,346.0,-9999.0,'1111122,1111122,1111122' 
LUMCON,ioos:station:LUMCON:101:1,2015-01-06T09:45:00Z,29.2533,-90.6633,1.0,10.8,357.0,-9999.0,'1111122,1111122,1111122' 
LUMCON,ioos:station:LUMCON:101:1,2015-01-06T10:45:00Z,29.2533,-90.6633,1.0,4.1,356.0,-9999.0,'1111122,1111122,1111122' 
LUMCON,ioos:station:LUMCON:101:1,2015-01-06T11:45:00Z,29.2533,-90.6633,1.0,5.4,29.0,-9999.0,'1111122,1111122,1111122' 
LUMCON,ioos:station:LUMCON:101:1,2015-01-06T12:45:00Z,29.2533,-90.6633,1.0,3.3,321.0,-9999.0,'1111122,1111122,1111122' 
LUMCON,ioos:station:LUMCON:101:1,2015-01-06T13:45:00Z,29.2533,-90.6633,1.0,6.8,320.0,-9999.0,'1111122,1111122,1111122' 
LUMCON,ioos:station:LUMCON:101:1,2015-01-06T14:45:00Z,29.2533,-90.6633,1.0,5.8,320.0,-9999.0,'1111122,1111122,1111122' 
LUMCON,ioos:station:LUMCON:101:1,2015-01-06T15:45:00Z,29.2533,-90.6633,1.0,8.9,333.0,-9999.0,'1111122,1111122,1111122' 
LUMCON,ioos:station:LUMCON:101:1,2015-01-06T16:45:00Z,29.2533,-90.6633,1.0,6.3,348.0,-9999.0,'1111122,1111122,1111122' 
LUMCON,ioos:station:LUMCON:101:1,2015-01-06T17:45:00Z,29.2533,-90.6633,1.0,4.7,348.0,-9999.0,'1111122,1111122,1111122' 
LUMCON,ioos:station:LUMCON:101:1,2015-01-06T18:45:00Z,29.2533,-90.6633,1.0,5.4,187.0,-9999.0,'1111122,1111122,1111122' 
LUMCON,ioos:station:LUMCON:101:1,2015-01-06T19:45:00Z,29.2533,-90.6633,1.0,4.4,285.0,-9999.0,'1111122,1111122,1111122' 
LUMCON,ioos:station:LUMCON:101:1,2015-01-06T20:45:00Z,29.2533,-90.6633,1.0,4.0,228.0,-9999.0,'1111122,1111122,1111122' 
LUMCON,ioos:station:LUMCON:101:1,2015-01-06T21:45:00Z,29.2533,-90.6633,1.0,2.0,311.0,-9999.0,'1111122,1111122,1111122' 
LUMCON,ioos:station:LUMCON:101:1,2015-01-06T22:45:00Z,29.2533,-90.6633,1.0,3.6,357.0,-9999.0,'1111122,1111122,1111122' 
LUMCON,ioos:station:LUMCON:101:1,2015-01-06T23:45:00Z,29.2533,-90.6633,1.0,2.3,58.0,-9999.0,'1111122,1111122,1111122' 
LUMCON,ioos:station:LUMCON:101:1,2015-01-07T00:45:00Z,29.2533,-90.6633,1.0,1.2,68.0,-9999.0,'1111122,1111122,1111122' 
LUMCON,ioos:station:LUMCON:101:1,2015-01-07T01:45:00Z,29.2533,-90.6633,1.0,2.4,317.0,-9999.0,'1111122,1111122,1111122' 
LUMCON,ioos:station:LUMCON:101:1,2015-01-07T02:45:00Z,29.2533,-90.6633,1.0,2.5,311.0,-9999.0,'1111122,1111122,1111122' 
LUMCON,ioos:station:LUMCON:101:1,2015-01-07T03:45:00Z,29.2533,-90.6633,1.0,3.2,328.0,-9999.0,'1111122,1111122,1111122' 
LUMCON,ioos:station:LUMCON:101:1,2015-01-07T04:45:00Z,29.2533,-90.6633,1.0,3.5,324.0,-9999.0,'1111122,1111122,1111122' 
LUMCON,ioos:station:LUMCON:101:1,2015-01-07T05:45:00Z,29.2533,-90.6633,1.0,6.0,355.0,-9999.0,'1111122,1111122,1111122' 
LUMCON,ioos:station:LUMCON:101:1,2015-01-07T06:45:00Z,29.2533,-90.6633,1.0,4.8,349.0,-9999.0,'1111122,1111122,1111122' 
LUMCON,ioos:station:LUMCON:101:1,2015-01-07T07:45:00Z,29.2533,-90.6633,1.0,9.0,354.0,-9999.0,'1111122,1111122,1111122' 
LUMCON,ioos:station:LUMCON:101:1,2015-01-07T08:45:00Z,29.2533,-90.6633,1.0,8.0,355.0,-9999.0,'1111122,1111122,1111122' 
LUMCON,ioos:station:LUMCON:101:1,2015-01-07T09:45:00Z,29.2533,-90.6633,1.0,12.8,0.0,-9999.0,'1111122,1114422,1111122' 
LUMCON,ioos:station:LUMCON:101:1,2015-01-07T10:45:00Z,29.2533,-90.6633,1.0,9.0,353.0,-9999.0,'1111122,1111122,1111122' 
LUMCON,ioos:station:LUMCON:101:1,2015-01-07T11:45:00Z,29.2533,-90.6633,1.0,10.3,347.0,-9999.0,'1111122,1111122,1111122' 
LUMCON,ioos:station:LUMCON:101:1,2015-01-07T12:45:00Z,29.2533,-90.6633,1.0,11.3,324.0,-9999.0,'1111122,1111122,1111122' 
LUMCON,ioos:station:LUMCON:101:1,2015-01-07T13:45:00Z,29.2533,-90.6633,1.0,13.7,343.0,-9999.0,'1111122,1111122,1111122' 
LUMCON,ioos:station:LUMCON:101:1,2015-01-07T14:45:00Z,29.2533,-90.6633,1.0,13.1,333.0,-9999.0,'1111122,1111122,1111122' 
LUMCON,ioos:station:LUMCON:101:1,2015-01-07T15:45:00Z,29.2533,-90.6633,1.0,15.4,355.0,-9999.0,'1111122,1111122,1111122' 
LUMCON,ioos:station:LUMCON:101:1,2015-01-07T16:45:00Z,29.2533,-90.6633,1.0,16.8,347.0,-9999.0,'1111122,1111122,1111122' 
LUMCON,ioos:station:LUMCON:101:1,2015-01-07T17:45:00Z,29.2533,-90.6633,1.0,20.0,353.0,-9999.0,'1111122,1111122,1111122' 
LUMCON,ioos:station:LUMCON:101:1,2015-01-07T18:45:00Z,29.2533,-90.6633,1.0,13.9,356.0,-9999.0,'1111122,1111122,1111122' 
LUMCON,ioos:station:LUMCON:101:1,2015-01-07T19:45:00Z,29.2533,-90.6633,1.0,21.7,352.0,-9999.0,'1111122,1111122,1111122' 
LUMCON,ioos:station:LUMCON:101:1,2015-01-07T20:45:00Z,29.2533,-90.6633,1.0,24.0,344.0,-9999.0,'1111122,1111122,1111122' 
LUMCON,ioos:station:LUMCON:101:1,2015-01-07T21:45:00Z,29.2533,-90.6633,1.0,27.1,347.0,-9999.0,'1111122,1111122,1111122' 
LUMCON,ioos:station:LUMCON:101:1,2015-01-07T22:45:00Z,29.2533,-90.6633,1.0,19.8,356.0,-9999.0,'1111122,1111122,1111122' 
LUMCON,ioos:station:LUMCON:101:1,2015-01-07T23:45:00Z,29.2533,-90.6633,1.0,21.2,348.0,-9999.0,'1111122,1111122,1111122' 
LUMCON,ioos:station:LUMCON:101:1,2015-01-08T00:45:00Z,29.2533,-90.6633,1.0,21.4,349.0,-9999.0,'1111122,1111122,1111122' 
LUMCON,ioos:station:LUMCON:101:1,2015-01-08T01:45:00Z,29.2533,-90.6633,1.0,17.4,355.0,-9999.0,'1111122,1111122,1111122' 
LUMCON,ioos:station:LUMCON:101:1,2015-01-08T02:45:00Z,29.2533,-90.6633,1.0,19.8,354.0,-9999.0,'1111122,1111122,1111122' 
LUMCON,ioos:station:LUMCON:101:1,2015-01-08T03:45:00Z,29.2533,-90.6633,1.0,20.9,6.0,-9999.0,'1111122,1111122,1111122' 
LUMCON,ioos:station:LUMCON:101:1,2015-01-08T04:45:00Z,29.2533,-90.6633,1.0,21.1,0.0,-9999.0,'1111122,1114422,1111122' 
LUMCON,ioos:station:LUMCON:101:1,2015-01-08T05:45:00Z,29.2533,-90.6633,1.0,18.6,359.0,-9999.0,'1111122,1111122,1111122' 
LUMCON,ioos:station:LUMCON:101:1,2015-01-08T06:45:00Z,29.2533,-90.6633,1.0,14.6,4.0,-9999.0,'1111122,1111122,1111122' 
LUMCON,ioos:station:LUMCON:101:1,2015-01-08T07:45:00Z,29.2533,-90.6633,1.0,13.8,9.0,-9999.0,'1111122,1111122,1111122' 
LUMCON,ioos:station:LUMCON:101:1,2015-01-08T08:45:00Z,29.2533,-90.6633,1.0,14.3,25.0,-9999.0,'1111122,1111122,1111122' 
LUMCON,ioos:station:LUMCON:101:1,2015-01-08T09:45:00Z,29.2533,-90.6633,1.0,13.5,25.0,-9999.0,'1111122,1111122,1111122' 
LUMCON,ioos:station:LUMCON:101:1,2015-01-08T10:45:00Z,29.2533,-90.6633,1.0,14.5,7.0,-9999.0,'1111122,1111122,1111122' 
LUMCON,ioos:station:LUMCON:101:1,2015-01-08T11:45:00Z,29.2533,-90.6633,1.0,14.5,24.0,-9999.0,'1111122,1111122,1111122' 
LUMCON,ioos:station:LUMCON:101:1,2015-01-08T12:45:00Z,29.2533,-90.6633,1.0,13.0,8.0,-9999.0,'1111122,1111122,1111122' 
LUMCON,ioos:station:LUMCON:101:1,2015-01-08T13:45:00Z,29.2533,-90.6633,1.0,12.6,3.0,-9999.0,'1111122,1111122,1111122' 
LUMCON,ioos:station:LUMCON:101:1,2015-01-08T14:45:00Z,29.2533,-90.6633,1.0,12.8,3.0,-9999.0,'1111122,1111122,1111122' 
LUMCON,ioos:station:LUMCON:101:1,2015-01-08T15:45:00Z,29.2533,-90.6633,1.0,11.9,16.0,-9999.0,'1111122,1111122,1111122' 
LUMCON,ioos:station:LUMCON:101:1,2015-01-08T16:45:00Z,29.2533,-90.6633,1.0,9.7,16.0,-9999.0,'1111122,1111122,1111122' 
LUMCON,ioos:station:LUMCON:101:1,2015-01-08T17:45:00Z,29.2533,-90.6633,1.0,9.0,16.0,-9999.0,'1111122,1111122,1111122' 
LUMCON,ioos:station:LUMCON:101:1,2015-01-08T18:45:00Z,29.2533,-90.6633,1.0,6.6,357.0,-9999.0,'1111122,1111122,1111122' 
LUMCON,ioos:station:LUMCON:101:1,2015-01-08T19:45:00Z,29.2533,-90.6633,1.0,6.2,1.0,-9999.0,'1111122,1111122,1111122' 
LUMCON,ioos:station:LUMCON:101:1,2015-01-08T20:45:00Z,29.2533,-90.6633,1.0,7.3,21.0,-9999.0,'1111122,1111122,1111122' 
LUMCON,ioos:station:LUMCON:101:1,2015-01-08T21:45:00Z,29.2533,-90.6633,1.0,6.0,30.0,-9999.0,'1111122,1111122,1111122' 
LUMCON,ioos:station:LUMCON:101:1,2015-01-08T22:45:00Z,29.2533,-90.6633,1.0,4.6,14.0,-9999.0,'1111122,1111122,1111122' 
LUMCON,ioos:station:LUMCON:101:1,2015-01-08T23:45:00Z,29.2533,-90.6633,1.0,6.6,343.0,-9999.0,'1111122,1111122,1111122' 
LUMCON,ioos:station:LUMCON:101:1,2015-01-09T00:45:00Z,29.2533,-90.6633,1.0,7.9,8.0,-9999.0,'1111122,1111122,1111122' 
LUMCON,ioos:station:LUMCON:101:1,2015-01-09T01:45:00Z,29.2533,-90.6633,1.0,7.7,355.0,-9999.0,'1111122,1111122,1111122' 
LUMCON,ioos:station:LUMCON:101:1,2015-01-09T02:45:00Z,29.2533,-90.6633,1.0,7.0,328.0,-9999.0,'1111122,1111122,1111122' 
LUMCON,ioos:station:LUMCON:101:1,2015-01-09T03:45:00Z,29.2533,-90.6633,1.0,8.5,352.0,-9999.0,'1111122,1111122,1111122' 
LUMCON,ioos:station:LUMCON:101:1,2015-01-09T04:45:00Z,29.2533,-90.6633,1.0,10.2,330.0,-9999.0,'1111122,1111122,1111122' 
LUMCON,ioos:station:LUMCON:101:1,2015-01-09T05:45:00Z,29.2533,-90.6633,1.0,10.5,341.0,-9999.0,'1111122,1111122,1111122' 
LUMCON,ioos:station:LUMCON:101:1,2015-01-09T06:45:00Z,29.2533,-90.6633,1.0,11.8,332.0,-9999.0,'1111122,1111122,1111122' 
LUMCON,ioos:station:LUMCON:101:1,2015-01-09T07:45:00Z,29.2533,-90.6633,1.0,12.7,340.0,-9999.0,'1111122,1111122,1111122' 
LUMCON,ioos:station:LUMCON:101:1,2015-01-09T08:45:00Z,29.2533,-90.6633,1.0,15.0,353.0,-9999.0,'1111122,1111122,1111122' 
LUMCON,ioos:station:LUMCON:101:1,2015-01-09T09:45:00Z,29.2533,-90.6633,1.0,13.1,354.0,-9999.0,'1111122,1111122,1111122' 